Location: Rounton
(54.4000°N, 1.3500°W)
Time: 05:44:05
(UTC+00:00)

A-11 Canister half - Pass Details

Date: 04 December 2021
Orbit: 1516 x 1684 km, 47.2° (Epoch: 21 January)

Event Time Altitude Azimuth Distance (km) Brightness Sun altitude
Rises 13:25:13 0° 284° (WNW) 4,895 11.7 10.9°
Reaches altitude 10° 13:28:55 10° 274° (W) 3,923 11.4 10.7°
Maximum altitude 13:36:56 28° 221° (SW) 2,767 11.8 10.3°
Drops below altitude 10° 13:44:59 10° 167° (SSE) 3,939 12.1 9.8°
Sets 13:48:44 0° 157° (SSE) 4,918 12.3 9.5°
